Location: アルンシュタイン
(50.0000°N, 10.0000°E)
Time: 10:18:12
(UTC+01:00)

Envisat - Pass Details

Date: 28 September 2023
Orbit: 762 x 764 km, 98.3° (Epoch: 07 December)

Event Time Altitude Azimuth Distance (km) Brightness Sun altitude
Rises 04:33:23 0° 19° (NNE) 3,245 7.0 -25.6°
Reaches altitude 10° 04:35:49 10° 26° (NNE) 2,314 6.2 -25.3°
Maximum altitude 04:40:40 43° 98° (E) 1,077 4.1 -24.6°
Enters shadow 04:44:35 15° 165° (SSE) 1,974 5.0 -24.1°
